Penticton, British Columbia

1:58 PM PST on February 25, 2017 (GMT -0800)
Penticton

Weather History for CYYF - March, 2014

Change the Weather History Date:

Monday, March 17, 2014

  Actual Average Record
Temperature  
Mean Temperature 46 °F -  
Max Temperature 52 °F 56 °F 57 °F (2003)
Min Temperature 35 °F 33 °F 21 °F (2002)
Degree Days  
Heating Degree Days 19    
Moisture  
Dew Point 21 °F    
Average Humidity 37    
Maximum Humidity 53    
Minimum Humidity 19    
Precipitation  
Precipitation 0.00 in 0.03 in - ()
Sea Level Pressure  
Sea Level Pressure 30.01 in    
Wind  
Wind Speed 10 mph ()    
Max Wind Speed 22 mph    
Max Gust Speed 31 mph    
Visibility 15.0 miles    
Events      
Averages and records for this station are not official NWS values.
T = Trace of Precipitation, MM = Missing Value Source: Averaged Metar Reports

Daily Weather History Graph

Daily Weather History Graph

Search for Another Location

Airport or City:

Trip Planner

Search our weather history database for the weather conditions in past years. The results will help you decide how hot, cold, wet, or windy it might be!

Date:

Astronomy

Mar. 17, 2014 Rise Set
Actual Time 7:07 AM PDT 7:06 PM PDT
Civil Twilight 6:35 AM PDT 7:38 PM PDT
Nautical Twilight 5:58 AM PDT 8:16 PM PDT
Astronomical Twilight 5:19 AM PDT 8:54 PM PDT
Moon 8:38 PM PDT (3/17) 7:18 AM PDT (3/17)
Length of Visible Light 13h 03m
Length of Day
11h 59m
Full, 99% of the Moon is Illuminated
Mar 17
Full
Mar 23
Last Quarter
Mar 30
New
Apr 7
First Quarter
Apr 15
Full

Hourly Weather History & Observations

Time (PDT) Temp. Windchill Dew Point Humidity Pressure Visibility Wind Dir Wind Speed Gust Speed Precip Events Conditions
12:00 AM 46.4 °F 41.5 °F 26.6 °F 46% 29.78 in 15.0 mi NE 10.4 mph - N/A   Overcast
1:00 AM 44.6 °F 39.2 °F 26.6 °F 49% 29.78 in 15.0 mi North 10.4 mph - N/A   Overcast
2:00 AM 44.6 °F 39.7 °F 26.6 °F 49% 29.78 in 15.0 mi NNE 9.2 mph - N/A   Overcast
3:00 AM 46.4 °F 40.4 °F 24.8 °F 43% 29.80 in 15.0 mi North 13.8 mph - N/A   Overcast
4:00 AM 44.6 °F 38.1 °F 28.4 °F 53% 29.81 in 15.0 mi NNW 13.8 mph 26.5 mph N/A   Overcast
5:00 AM 45 °F - 25 °F 33% 29.85 in 15 mi NW 10.4 mph - -   Overcast
5:00 AM 44.6 °F 39.2 °F 24.8 °F 46% 29.85 in 15.0 mi NNW 10.4 mph - N/A   Overcast
6:00 AM 42.8 °F 37.0 °F 24.8 °F 49% 29.88 in 15.0 mi NNW 10.4 mph - N/A   Overcast
7:00 AM 41.0 °F 33.9 °F 21.2 °F 45% 29.94 in 15.0 mi NNW 12.7 mph - N/A   Mostly Cloudy
8:00 AM 42.8 °F 38.0 °F 21.2 °F 42% 29.97 in 15.0 mi NNW 8.1 mph - N/A   Mostly Cloudy
9:00 AM 44.6 °F 38.4 °F 21.2 °F 39% 30.00 in 15.0 mi North 12.7 mph - N/A   Mostly Cloudy
10:00 AM 46.4 °F 40.4 °F 21.2 °F 37% 30.02 in 15.0 mi North 13.8 mph - N/A   Mostly Cloudy
11:00 AM 48 °F - 20 °F 20% 30.05 in 15 mi North 10.4 mph - -   Partly Cloudy
11:00 AM 48.2 °F - 19.4 °F 32% 30.05 in 15.0 mi North 13.8 mph - N/A   Mostly Cloudy
12:00 PM 51.8 °F - 19.4 °F 28% 30.06 in 15.0 mi North 16.1 mph 21.9 mph N/A   Mostly Cloudy
1:00 PM 51.8 °F - 17.6 °F 26% 30.06 in 15.0 mi North 21.9 mph 31.1 mph N/A   Partly Cloudy
2:00 PM 51.8 °F - 17.6 °F 26% 30.06 in 15.0 mi NNE 16.1 mph 27.6 mph N/A   Partly Cloudy
3:00 PM 48.2 °F - 17.6 °F 30% 30.06 in 15.0 mi North 15.0 mph - N/A   Scattered Clouds
4:00 PM 50.0 °F - 19.4 °F 30% 30.07 in 15.0 mi NNW 3.5 mph - N/A   Mostly Cloudy
5:00 PM 50 °F - 20 °F 19% 30.09 in 15 mi WNW 11.5 mph - -   Mostly Cloudy
5:00 PM 50.0 °F - 21.2 °F 32% 30.09 in 15.0 mi WNW 11.5 mph 23.0 mph N/A   Mostly Cloudy
6:00 PM 46.4 °F 39.0 °F 17.6 °F 32% 30.12 in 15.0 mi West 19.6 mph 25.3 mph N/A   Scattered Clouds
7:00 PM 44.6 °F 39.2 °F 15.8 °F 31% 30.16 in 15.0 mi NNW 10.4 mph - N/A   Mostly Cloudy
8:00 PM 42.8 °F 36.6 °F 19.4 °F 39% 30.18 in 15.0 mi NE 11.5 mph 18.4 mph N/A   Mostly Cloudy
9:00 PM 41.0 °F - 19.4 °F 42% 30.21 in 15.0 mi WNW 2.3 mph - N/A   Mostly Cloudy
10:00 PM 41.0 °F 34.7 °F 19.4 °F 42% 30.22 in 15.0 mi NE 10.4 mph - N/A   Mostly Cloudy
11:00 PM 35.6 °F 32.8 °F 19.4 °F 52% 30.23 in 15.0 mi North 3.5 mph - N/A   Mostly Cloudy